When you browse on this site, cookies collect data to enhance your experience and personalize the content and advertising you see.
Visit our Privacy Policy to learn more. By continuing to use the site, you agree to this use of cookies and data.
  • In Romania
  • List of Countries
  • For 7 days
  • Water Temperature
  • Satellite Maps
  • Weather Map
  • Weather Widgets
  • user-avatar
    Login

    Hourly Weather Linz

    Today, 16 June, Sunday

    Time Temperature Precipitation Wind Pressure Humidity
    00:00 +19°C° 0.1 mm 1 mps 733 mmHg 95%
    01:00 +18°C° 0.1 mm 1 mps 734 mmHg 95%
    02:00 +18°C° 0 mm 1 mps 733 mmHg 95%
    03:00 +18°C° 0 mm 1 mps 733 mmHg 95%
    04:00 +18°C° 0 mm 1 mps 733 mmHg 95%
    05:00 +19°C° 0.1 mm 1 mps 734 mmHg 94%
    06:00 +19°C° 0.1 mm 1 mps 734 mmHg 93%
    07:00 +20°C° 0.1 mm 1 mps 735 mmHg 92%
    08:00 +19°C° 0.7 mm 2 mps 735 mmHg 92%
    09:00 +20°C° 0.7 mm 2 mps 735 mmHg 91%
    10:00 +20°C° 0.7 mm 2 mps 735 mmHg 91%
    11:00 +19°C° 0.7 mm 3 mps 735 mmHg 92%
    12:00 +18°C° 0.7 mm 3 mps 735 mmHg 93%
    13:00 +17°C° 0.7 mm 4 mps 736 mmHg 94%
    14:00 +18°C° 0.2 mm 3 mps 736 mmHg 93%
    15:00 +18°C° 0.2 mm 3 mps 736 mmHg 91%
    16:00 +18°C° 0.2 mm 3 mps 736 mmHg 90%
    17:00 +18°C° 0.1 mm 2 mps 736 mmHg 90%
    18:00 +18°C° 0.1 mm 2 mps 736 mmHg 91%
    19:00 +19°C° 0.1 mm 1 mps 736 mmHg 91%
    20:00 +19°C° 0 mm 1 mps 737 mmHg 91%
    21:00 +19°C° 0 mm 1 mps 737 mmHg 91%
    22:00 +18°C° 0 mm 1 mps 737 mmHg 91%
    23:00 +18°C° 0 mm 1 mps 737 mmHg 92%

    Tomorrow, 17 June, Monday

    Time Temperature Precipitation Wind Pressure Humidity
    00:00 +16°C° 0 mm 1 mps 737 mmHg 93%
    01:00 +16°C° 0 mm 1 mps 737 mmHg 93%
    02:00 +15°C° 0 mm 0 mps 737 mmHg 93%
    03:00 +14°C° 0 mm 0 mps 737 mmHg 93%
    04:00 +14°C° 0 mm 0 mps 736 mmHg 93%
    05:00 +15°C° 0 mm 0 mps 737 mmHg 91%
    06:00 +16°C° 0 mm 0 mps 737 mmHg 89%
    07:00 +17°C° 0 mm 0 mps 737 mmHg 86%
    08:00 +20°C° 0 mm 1 mps 737 mmHg 79%
    09:00 +21°C° 0 mm 2 mps 737 mmHg 72%
    10:00 +24°C° 0 mm 3 mps 736 mmHg 65%
    11:00 +24°C° 0 mm 3 mps 736 mmHg 62%
    12:00 +25°C° 0 mm 3 mps 736 mmHg 60%
    13:00 +25°C° 0 mm 4 mps 735 mmHg 58%
    14:00 +25°C° 0 mm 4 mps 735 mmHg 58%
    15:00 +25°C° 0 mm 4 mps 735 mmHg 59%
    16:00 +25°C° 0 mm 5 mps 734 mmHg 60%
    17:00 +23°C° 0 mm 4 mps 734 mmHg 65%
    18:00 +21°C° 0 mm 4 mps 734 mmHg 70%
    19:00 +20°C° 0 mm 4 mps 734 mmHg 75%
    20:00 +19°C° 0 mm 3 mps 734 mmHg 75%
    21:00 +18°C° 0 mm 3 mps 734 mmHg 75%
    22:00 +17°C° 0 mm 3 mps 735 mmHg 75%
    23:00 +16°C° 0 mm 2 mps 734 mmHg 77%

    Day after tomorrow, 18 June, Tuesday

    Time Temperature Precipitation Wind Pressure Humidity
    00:00 +16°C° 0 mm 2 mps 734 mmHg 79%
    01:00 +16°C° 0 mm 2 mps 734 mmHg 81%
    02:00 +15°C° 0 mm 2 mps 734 mmHg 83%
    03:00 +15°C° 0 mm 1 mps 734 mmHg 85%
    04:00 +14°C° 0 mm 1 mps 733 mmHg 86%
    05:00 +16°C° 0 mm 1 mps 734 mmHg 83%
    06:00 +18°C° 0 mm 1 mps 734 mmHg 80%
    07:00 +19°C° 0 mm 1 mps 734 mmHg 78%
    08:00 +20°C° 0 mm 2 mps 734 mmHg 75%
    09:00 +21°C° 0 mm 2 mps 734 mmHg 72%
    10:00 +24°C° 0 mm 2 mps 733 mmHg 69%
    11:00 +25°C° 0 mm 2 mps 733 mmHg 67%
    12:00 +26°C° 0 mm 3 mps 733 mmHg 65%
    13:00 +27°C° 0 mm 3 mps 732 mmHg 64%
    14:00 +27°C° 0.1 mm 3 mps 732 mmHg 65%
    15:00 +27°C° 0.1 mm 3 mps 732 mmHg 67%
    16:00 +27°C° 0.1 mm 3 mps 732 mmHg 68%
    17:00 +26°C° 0.2 mm 3 mps 732 mmHg 73%
    18:00 +25°C° 0.2 mm 2 mps 732 mmHg 79%
    19:00 +24°C° 0.2 mm 2 mps 732 mmHg 84%
    20:00 +23°C° 0.1 mm 1 mps 732 mmHg 86%
    21:00 +21°C° 0.1 mm 1 mps 732 mmHg 89%
    22:00 +20°C° 0.1 mm 1 mps 733 mmHg 91%
    23:00 +20°C° 0.2 mm 1 mps 732 mmHg 91%

    19 June, Wednesday

    Time Temperature Precipitation Wind Pressure Humidity
    00:00 +19°C° 0.2 mm 1 mps 732 mmHg 92%
    01:00 +19°C° 0.2 mm 1 mps 732 mmHg 92%
    02:00 +18°C° 0.2 mm 1 mps 732 mmHg 92%
    03:00 +18°C° 0.2 mm 1 mps 732 mmHg 92%
    04:00 +18°C° 0.2 mm 1 mps 732 mmHg 92%
    05:00 +19°C° 0 mm 1 mps 732 mmHg 90%
    06:00 +18°C° 0 mm 0 mps 732 mmHg 88%
    07:00 +19°C° 0 mm 0 mps 732 mmHg 86%
    08:00 +23°C° 0 mm 1 mps 732 mmHg 81%
    09:00 +24°C° 0 mm 1 mps 732 mmHg 75%
    10:00 +25°C° 0 mm 2 mps 732 mmHg 70%
    11:00 +26°C° 0.3 mm 2 mps 732 mmHg 67%
    12:00 +27°C° 0.3 mm 2 mps 732 mmHg 63%
    13:00 +28°C° 0.3 mm 2 mps 731 mmHg 60%
    14:00 +28°C° 0.2 mm 2 mps 731 mmHg 62%
    15:00 +28°C° 0.2 mm 1 mps 731 mmHg 63%
    16:00 +28°C° 0.2 mm 1 mps 731 mmHg 65%
    17:00 +26°C° 0.1 mm 1 mps 731 mmHg 70%
    18:00 +25°C° 0.1 mm 2 mps 731 mmHg 76%
    19:00 +23°C° 0.1 mm 2 mps 731 mmHg 82%
    20:00 +21°C° 0 mm 2 mps 732 mmHg 83%
    21:00 +21°C° 0 mm 1 mps 732 mmHg 84%
    22:00 +19°C° 0 mm 1 mps 732 mmHg 85%
    23:00 +19°C° 0 mm 1 mps 732 mmHg 85%

    20 June, Thursday

    Time Temperature Precipitation Wind Pressure Humidity
    00:00 +18°C° 0 mm 1 mps 732 mmHg 85%
    01:00 +15°C° 0 mm 0 mps 731 mmHg 86%
    02:00 +15°C° 0 mm 0 mps 731 mmHg 85%
    03:00 +15°C° 0 mm 0 mps 731 mmHg 85%
    04:00 +15°C° 0 mm 0 mps 731 mmHg 85%
    05:00 +16°C° 0 mm 0 mps 732 mmHg 82%
    06:00 +18°C° 0 mm 0 mps 732 mmHg 79%
    07:00 +19°C° 0 mm 0 mps 732 mmHg 76%
    08:00 +21°C° 0 mm 0 mps 732 mmHg 72%
    09:00 +23°C° 0 mm 0 mps 732 mmHg 67%
    10:00 +27°C° 0 mm 1 mps 732 mmHg 62%
    11:00 +28°C° 0 mm 1 mps 732 mmHg 58%
    12:00 +29°C° 0 mm 1 mps 732 mmHg 54%
    13:00 +30°C° 0 mm 1 mps 732 mmHg 50%
    14:00 +30°C° 0 mm 1 mps 731 mmHg 49%
    15:00 +30°C° 0 mm 1 mps 731 mmHg 48%
    16:00 +30°C° 0 mm 1 mps 731 mmHg 47%
    17:00 +29°C° 0 mm 1 mps 731 mmHg 55%
    18:00 +27°C° 0 mm 2 mps 731 mmHg 63%
    19:00 +25°C° 0 mm 3 mps 731 mmHg 70%
    20:00 +24°C° 0.1 mm 3 mps 732 mmHg 73%
    21:00 +21°C° 0.1 mm 3 mps 732 mmHg 75%
    22:00 +20°C° 0.1 mm 3 mps 733 mmHg 78%
    23:00 +19°C° 0.8 mm 2 mps 733 mmHg 83%

    21 June, Friday

    Time Temperature Precipitation Wind Pressure Humidity
    00:00 +19°C° 0.8 mm 2 mps 733 mmHg 89%
    01:00 +18°C° 0.8 mm 2 mps 733 mmHg 94%
    02:00 +18°C° 0.1 mm 2 mps 733 mmHg 95%
    03:00 +19°C° 0.1 mm 1 mps 733 mmHg 95%
    04:00 +18°C° 0.1 mm 1 mps 733 mmHg 95%
    05:00 +19°C° 0 mm 1 mps 733 mmHg 93%
    06:00 +18°C° 0 mm 0 mps 733 mmHg 91%
    07:00 +19°C° 0 mm 0 mps 733 mmHg 89%
    08:00 +21°C° 0 mm 0 mps 733 mmHg 84%
    09:00 +22°C° 0 mm 0 mps 733 mmHg 79%
    10:00 +25°C° 0 mm 1 mps 733 mmHg 74%
    11:00 +26°C° 0 mm 1 mps 732 mmHg 70%
    12:00 +28°C° 0 mm 1 mps 732 mmHg 66%
    13:00 +29°C° 0 mm 1 mps 731 mmHg 63%
    14:00 +29°C° 0 mm 1 mps 731 mmHg 62%
    15:00 +29°C° 0 mm 1 mps 731 mmHg 61%
    16:00 +29°C° 0 mm 1 mps 730 mmHg 60%
    17:00 +28°C° 0.4 mm 2 mps 730 mmHg 66%
    18:00 +27°C° 0.4 mm 2 mps 730 mmHg 72%
    19:00 +25°C° 0.4 mm 3 mps 731 mmHg 79%
    20:00 +24°C° 3.4 mm 3 mps 731 mmHg 84%
    21:00 +21°C° 3.4 mm 3 mps 732 mmHg 89%
    22:00 +19°C° 3.4 mm 3 mps 732 mmHg 94%
    23:00 +19°C° 0.3 mm 3 mps 732 mmHg 95%
    Show more